Other Surface Observations
Issued by NWS Tucson, AZ

Home | Current Version | Previous Version | Text Only | Print | Product List | Glossary On
Versions: 1 2 3 4 5 6 7 8 9 10 11 12 13 14 15 16 17 18 19 20 21 22 23 24 25 26 27 28 29 30 31 32 33 34 35 36 37 38 39 40 41 42 43 44 45 46 47 48 49 50
000
SXUS55 KTWC 031915
OSOTWC

WEATHER ROUNDUP FOR SOUTHEAST ARIZONA
NATIONAL WEATHER SERVICE TUCSON AZ
1215 PM MST TUE MAR 03 2015

AZZ504>506-514-032015-
LOCATION       SKY/WX    TMP DP  RH WIND       PRES   REMARKS
TUCSON         MOSUNNY   58  37  45 CALM      29.94F
DAVIS-MONTHAN  MOSUNNY   55  36  49 S3        29.92F
CHILDRENS PARK N/A       56  43  61 N/A               PIMA CO DEQ
ALVERNON/22ND  N/A      N/A N/A N/A N/A               PIMA CO DEQ
CHERRY/GLENN   N/A      N/A N/A N/A N/A               PIMA CO DEQ
TANGERINE      N/A       55 N/A N/A W4                PIMA CO DEQ
CONTL RANCH    N/A       57  44  62 NW5               PIMA CO DEQ
GRANT/1ST      N/A       56  41  58 W1                PIMA CO DEQ
CRAYCROFT/22ND N/A      N/A N/A N/A N/A               PIMA CO DEQ
GOLFLINKS/KOLB N/A       56  40  55 SW3               PIMA CO DEQ
AJO/12TH       N/A       57  41  54 S4                PIMA CO DEQ
SAGUARO EAST   N/A      N/A N/A N/A N/A               PIMA CO DEQ
FAIRGROUNDS    N/A       54 N/A N/A W3                PIMA CO DEQ
SAGUARO        N/A       61  40  45 SW5               *SABINO CYN
SAN CARLOS     N/A       57  40  52 E4                *SAN CARLOS
GREEN VALLEY   N/A       57  35  44 SW6               PIMA CO DEQ
HORSE CAMP CYN N/A       50  36  59 W10G15            *ARAVAIPA CYN
RINCON MTNS    N/A       37  27  66 SW3               *NR MANNING CAMP
$$

AZZ509>511-032015-
LOCATION       SKY/WX    TMP DP  RH WIND       PRES   REMARKS
SAFFORD        MOSUNNY   58  38  47 N7        29.90F
STRAY HORSE    N/A       37  22  54 W7G16             *
TRAIL CABIN    N/A       46  27  47 S6G12             *N OF GRANVILLE
BLACK HILLS    N/A       56  40  55 NW5G11            *N OF FT THOMAS
DRY LAKE       N/A       40  28  62 SW5G10            *NATANES MTNS
NOON CREEK     N/A       47  41  80 NE5               *PINALENO MTNS
COLUMBINE      N/A       28  26  93 CALM              *PINALENO MTNS
GUTHRIE        N/A       46  31  55 SW7G14            *SW OF GUTHRIE
$$

AZZ502-503-513-032015-
LOCATION       SKY/WX    TMP DP  RH WIND       PRES   REMARKS
NOGALES        SUNNY     60  27  28 SW8G20    29.92F
SELLS          N/A       58  37  46 SW4               *
SASABE         N/A       56  35  45 CALM              *ALTAR VLY
HOPKINS        N/A       39  27  61 SW6               *SANTA RITA MTNS
CARR CYN       N/A       53  37  54 N3                *W OF HEREFORD
$$

AZZ507-508-512-032015-
LOCATION       SKY/WX    TMP DP  RH WIND       PRES   REMARKS
SIERRA VISTA   MOSUNNY   57  34  41 CALM      29.92F
DOUGLAS        SUNNY     59  36  42 SW13      29.92S
EMPIRE MTNS    N/A       56  30  37 E3G16             *LAS CIENEGAS NCA
MULESHOE RANCH N/A       50  32  50 W6G10             *PRESERVE
HEADQUARTERS   N/A       52  33  49 SW4G13            *CHIRICAHUA MTNS
$$

.............................NOTES.............................
THIS IS AN AUTOMATED COLLECTIVE WITH MINIMAL QUALITY CONTROL.
PIMA CO DEQ SITES HAVE NONSTANDARD WIND SENSOR HEIGHTS.
PIMA CO DEQ SITES DO NOT REPORT WIND GUSTS.
* INDICATES WIND SENSORS LOCATED AT 20 FEET INSTEAD OF 33 FEET.
..............................KEY..............................
SKY/WX - SKY CONDITION/WEATHER
TMP    - TEMPERATURE IN FAHRENHEIT
DP     - DEWPOINT IN FAHRENHEIT
RH     - RELATIVE HUMIDITY IN PERCENT
WIND   - DIRECTION AND SPEED IN MILES PER HOUR (MPH)
VRB    - VARIABLE WIND DIRECTION
PRES   - MEAN SEA LEVEL PRESSURE IN INCHES OF MERCURY
         F - FALLING PRESSURE   R - RISING PRESSURE
         S - STEADY PRESSURE
VSB    - VISIBILITY IN MILES
HX     - HEAT INDEX IN FAHRENHEIT
WCI    - WIND CHILL INDEX IN FAHRENHEIT
N/A    - NOT AVAILABLE
AFB    - AIR FORCE BASE
         DAVIS-MONTHAN IS DAVIS-MONTHAN AIR FORCE BASE
CYN    - CANYON
MTNS   - MOUNTAINS
NCA    - NATIONAL CONSERVATION AREA
NR     - NEAR
VLY    - VALLEY
CONTL  - CONTINENTAL
PIMA CO DEQ - PIMA COUNTY DEPT OF ENVIRONMENTAL QUALITY



USA.gov is the U.S. government's official web portal to all federal, state and local government web resources and services.